This is the latest recevied weather packets stored in our database for station/object KB0BDN-13. If no packets are shown the sender has not sent any weather packets the latest 10 day(s).
| Time | Temp. | Humidity | Pressure | Rain* | Wind** | Luminosity | Snow |
|---|---|---|---|---|---|---|---|
| 1777509123 | 1.67° C | 69% | 1011.2 hPa | 0 mm | - | - | - |
| 1777508223 | 1.67° C | 67% | 1011.2 hPa | 0 mm | - | - | - |
| 1777507323 | 2.22° C | 67% | 1011.1 hPa | 0 mm | - | - | - |
| 1777506423 | 2.22° C | 68% | 1011.1 hPa | 0 mm | - | - | - |
| 1777505528 | 2.22° C | 67% | 1011.1 hPa | 0 mm | - | - | - |
| 1777504628 | 2.22° C | 67% | 1011.1 hPa | 0 mm | - | - | - |
| 1777503728 | 2.78° C | 65% | 1011 hPa | 0 mm | - | - | - |
| 1777502828 | 2.78° C | 64% | 1011 hPa | 0 mm | - | - | - |
| 1777501928 | 2.78° C | 63% | 1010.9 hPa | 0 mm | - | - | - |
| 1777501028 | 2.78° C | 61% | 1011 hPa | 0 mm | - | - | - |
| 1777500128 | 2.22° C | 63% | 1010.9 hPa | 0 mm | - | - | - |
| 1777499228 | 2.22° C | 64% | 1010.9 hPa | 0 mm | - | - | - |
| 1777498328 | 2.22° C | 68% | 1010.8 hPa | 0 mm | - | - | - |
| 1777497428 | 2.22° C | 69% | 1010.8 hPa | 0 mm | - | - | - |
| 1777496528 | 2.22° C | 66% | 1010.6 hPa | 0 mm | - | - | - |
| 1777495628 | 2.22° C | 67% | 1010.6 hPa | 0 mm | - | - | - |
| 1777494728 | 2.22° C | 66% | 1010.5 hPa | 0 mm | - | - | - |
| 1777494108 | 2.22° C | 68% | 1010.6 hPa | 0 mm | - | - | - |
| 1777493208 | 2.22° C | 69% | 1010.7 hPa | 0 mm | - | - | - |
| 1777492308 | 2.22° C | 67% | 1010.8 hPa | 0 mm | - | - | - |
| 1777491408 | 2.22° C | 66% | 1010.7 hPa | 0 mm | - | - | - |
| 1777490508 | 2.22° C | 64% | 1010.6 hPa | 0 mm | - | - | - |
| 1777489608 | 2.78° C | 65% | 1010.6 hPa | 0 mm | - | - | - |
| 1777488708 | 2.22° C | 65% | 1010.5 hPa | 0 mm | - | - | - |
| 1777487808 | 2.22° C | 66% | 1010.7 hPa | 0 mm | - | - | - |
* Rain latest hour (hover to see other rain measurements)
** Current wind speed in m/s (hover to see current wind gust speed)